Regional Weather Roundup
Issued by NWS

Home | Current Version | Previous Version | Text Only | Print | Product List | Glossary On
Versions: 1 2 3 4 5 6 7 8 9 10 11 12 13 14 15 16 17 18 19 20 21 22 23 24 25 26 27 28 29 30 31 32 33 34 35 36 37 38 39 40 41 42 43 44 45 46 47 48 49 50
000
ASUS44 KJAN 292320
RWRMS

MISSISSIPPI HOURLY WEATHER ROUNDUP
NATIONAL WEATHER SERVICE JACKSON MS
600 PM CDT FRI JUL 29 2016

NOTE: "FAIR: INDICATES FEW OR NO CLOUDS BELOW 12,000 FEET WITH NO
SIGNIFICANT WEATHER AND/OR OBSTRUCTIONS TO VISIBILITY.

MSZ001>002-007>008-010>013-018>021-025>028-034>036-300000-
NORTHWEST MISSISSIPPI

CITY           SKY/WX    TMP DP  RH WIND       PRES   REMARKS
CLEVELAND      FAIR      87  82  84 SW7       29.93F HX 105
GREENWOOD      MOSUNNY   89  74  60 VRB5      29.94F HX  98
GREENVILLE     MOSUNNY   91  74  57 W7        29.94S HX 100
OXFORD         FAIR      86  73  66 SW12      29.96F HX  93
WINONA         FAIR      87  74  66 SW3       29.95F HX  96
$$

MSZ003>006-009-014>017-022>024-029>033-037>039-300000-
NORTHEAST MISSISSIPPI

CITY           SKY/WX    TMP DP  RH WIND       PRES   REMARKS
ABERDEEN       FAIR      88  70  55 SW6       29.96F HX  92
COLUMBUS AFB   MOSUNNY   89  78  70 W6        29.95S HX 103
GOLDN TRIANGLE MOSUNNY   90  72  55 W5        29.95F HX  96
TUPELO         MOSUNNY   89  72  56 SW8       29.93F HX  96
$$

MSZ040-058-300000-
CENTRAL MISSISSIPPI

CITY           SKY/WX    TMP DP  RH WIND       PRES   REMARKS
JACKSON INTL   PTSUNNY   89  72  56 SW6       29.98R HX  96
JACKSON HAWKNS MOSUNNY   89  72  56 W7        29.98S HX  96
MADISON        FAIR      88  72  58 SW7       29.98R HX  94
MERIDIAN KEY   SUNNY     91  70  49 W8        29.98S HX  96
MERIDIAN NAS   SUNNY     91  65  41 W9        29.98R HX  93
VICKSBURG VKS  CLEAR     91  75  59 SW6       29.97S HX 102
$$

MSZ059>079-300000-
SOUTH MISSISSIPPI

CITY           SKY/WX    TMP DP  RH WIND       PRES   REMARKS
BROOKHAVEN     FAIR     N/A N/A N/A S3        30.01F
COLUMBIA       FAIR      86  73  66 CALM      30.03S HX  93
HATTIESBURG    SUNNY     88  73  61 W6        29.99S HX  95
MCCOMB         MOSUNNY   82  71  69 CALM      30.00S
NATCHEZ        CLOUDY    84  75  74 S3        29.99S HX  92
PINE BELT      MOSUNNY   81  75  83 SW3       30.01S
$$

MSZ080>082-300000-
COASTAL MISSISSIPPI

CITY           SKY/WX    TMP DP  RH WIND       PRES   REMARKS
BAY ST LOUIS   MOSUNNY   90  70  51 SW5       29.99S HX  95
BILOXI         SUNNY     89  77  67 S9        29.98S HX 101
PASCAGOULA     PTSUNNY   87  76  69 S8        29.99S HX  97
GULFPORT       SUNNY     88  73  61 SW6       29.97S HX  95
$$

LAZ007>009-015>016-023>026-300000-
NORTHEAST LOUISIANA

CITY           SKY/WX    TMP DP  RH WIND       PRES   REMARKS
BASTROP        FAIR      91  74  57 SW8       29.95F HX 101
TALLULAH/VBURG MOSUNNY   90  75  61 VRB5      29.96S HX 100
VIDALIA        FAIR      85  77  77 SW3       30.00S HX  95
$$



USA.gov is the U.S. government's official web portal to all federal, state and local government web resources and services.